Regional Weather Roundup
Issued by NWS Little Rock, AR

Home | Current Version | Previous Version | Text Only | Print | Product List | Glossary On
Versions: 1 2 3 4 5 6 7 8 9 10 11 12 13 14 15 16 17 18 19 20 21 22 23 24 25 26 27 28 29 30 31 32 33 34 35 36 37 38 39 40 41 42 43 44 45 46 47 48 49 50
000
ASUS44 KLZK 280705
RWRLZK

WEATHER ROUNDUP FOR ARKANSAS
NATIONAL WEATHER SERVICE LITTLE ROCK AR
200 AM CDT THU MAY 28 2015

NOTE: "FAIR" INDICATES FEW OR NO CLOUDS BELOW 12,000 FEET WITH NO
SIGNIFICANT WEATHER AND/OR OBSTRUCTIONS TO VISIBILITY.

ARZ001-003-010-029-280800-
NORTHWEST ARKANSAS

CITY           SKY/WX    TMP DP  RH WIND       PRES   REMARKS
FAYETTEVILLE   MOCLDY    62  62 100 S3        30.10F
FORT SMITH     MOCLDY    71  67  87 NE5       30.07F
HARRISON       MOCLDY    65  64  97 CALM      30.13F
BENTONVILLE    MOCLDY    66  63  88 CALM      30.10F
ROGERS         PTCLDY    66  64  93 SE5       30.11F
SILOAM SPGS    CLOUDY    64  57  77 E3        30.11F
$$

ARZ004-005-016-280800-
NORTH CENTRAL ARKANSAS

CITY           SKY/WX    TMP DP  RH WIND       PRES   REMARKS
BATESVILLE     MOCLDY    70  66  88 CALM      30.13S
FLIPPIN        MOCLDY    68  66  94 CALM      30.11R
MTN HOME       MOCLDY    67  66  97 NE3       30.13R FOG
$$

ARZ040-041-280800-
WEST CENTRAL ARKANSAS

CITY           SKY/WX    TMP DP  RH WIND       PRES   REMARKS
MENA           CLEAR     66  64  94 CALM      30.11F
MOUNT IDA      PTCLDY    67  65  93 CALM      30.08F
$$

ARZ009-017-025-026-028-280800-
NORTHEAST ARKANSAS

CITY           SKY/WX    TMP DP  RH WIND       PRES   REMARKS
CORNING        FAIR      68  68 100 SE6       30.13F
JONESBORO      CLEAR     64  64 100 CALM      30.13F
NEWPORT        PTCLDY    68  68 100 E3        30.13F
WALNUT RIDGE   PTCLDY    68  64  88 S6        30.12F
BLYTHEVILLE    CLEAR     68  68 100 S6        30.14F
$$

ARZ022-023-033-042-044-280800-
CENTRAL ARKANSAS

CITY           SKY/WX    TMP DP  RH WIND       PRES   REMARKS
N LITTLE ROCK    N/A     70  70 100 SE3       30.10F
JACKSONVILLE   CLOUDY    71  71  99 CALM      30.10F
HOT SPRINGS    PTCLDY    72  68  87 CALM      30.11S
RUSSELLVILLE   MOCLDY    71  68  90 CALM      30.09S
CLINTON        CLOUDY    68  68 100 CALM      30.13F FOG
$$

ARZ036-280800-
EAST ARKANSAS

CITY           SKY/WX    TMP DP  RH WIND       PRES   REMARKS
$$

ARZ050-053-066-070-073-280800-
SOUTHWEST ARKANSAS

CITY           SKY/WX    TMP DP  RH WIND       PRES   REMARKS
CAMDEN         FOG       66  64  94 CALM      30.09F VSB 3/4
TEXARKANA      MOCLDY    71  69  93 SE5       30.08R
EL DORADO      CLEAR     68  66  93 CALM      30.10S
DE QUEEN       PTCLDY    67  66  97 E17       30.06F
$$

ARZ056-057-069-280800-
SOUTHEAST ARKANSAS

CITY           SKY/WX    TMP DP  RH WIND       PRES   REMARKS
PINE BLUFF     PTCLDY    69  69 100 SE5       30.10F
STUTTGART      CLEAR     70  66  88 E6        30.11S
MONTICELLO     FOG       69  69 100 E3        30.10F VSB 1/4

$$




USA.gov is the U.S. government's official web portal to all federal, state and local government web resources and services.